Location: *
(43.7000°S, 168.7000°W)
Time: 14:18:43
(UTC+00:00)

BREEZE-M DEB (TANK) - Pass Details

Date: 07 July 2020
Orbit: 421 x 13862 km, 46.0° (Epoch: 03 August)

Event Time Altitude Azimuth Distance (km) Brightness Sun altitude
Exits shadow 16:52:49 55° 337° (NNW) 528 2.1 -20.0°
Drops below altitude 10° 16:55:42 10° 54° (NE) 1,607 5.7 -19.5°
Sets 16:58:00 0° 59° (ENE) 2,772 7.3 -19.1°
